Weather History for KHYS - May, 2013

Change the Weather History Date:

Thursday, May 23, 2013

  Actual Average Record
Temperature  
Mean Temperature 60 °F -  
Max Temperature 71 °F 76 °F 96 °F (2000)
Min Temperature 48 °F 51 °F 42 °F (2001)
Degree Days  
Heating Degree Days 6    
Growing Degree Days 10 (Base 50)    
Moisture  
Dew Point 49 °F    
Average Humidity 67    
Maximum Humidity 87    
Minimum Humidity 46    
Precipitation  
Precipitation 0.00 in - - ()
Sea Level Pressure  
Sea Level Pressure 30.12 in    
Wind  
Wind Speed 12 mph (ENE)    
Max Wind Speed 17 mph    
Max Gust Speed 22 mph    
Visibility 10 miles    
Events      
Averages and records for this station are not official NWS values.
T = Trace of Precipitation, MM = Missing Value Source: NWS Daily Summary

Daily Weather History Graph

Daily Weather History Graph

Search for Another Location

Airport or City:

Trip Planner

Search our weather history database for the weather conditions in past years. The results will help you decide how hot, cold, wet, or windy it might be!

Date:

Astronomy

May. 23, 2013 Rise Set
Actual Time 6:18 AM CDT 8:49 PM CDT
Civil Twilight 5:47 AM CDT 9:20 PM CDT
Nautical Twilight 5:09 AM CDT 9:58 PM CDT
Astronomical Twilight 4:27 AM CDT 10:41 PM CDT
Moon 7:24 PM CDT (5/23) 5:03 AM CDT (5/23)
Length of Visible Light 15h 32m
Length of Day
14h 31m
Waxing Gibbous, 97% of the Moon is Illuminated
May 23
Waxing Gibbous
May 24
Full
May 31
Last Quarter
Jun 8
New
Jun 16
First Quarter

Hourly Weather History & Observations

Time (CDT) Temp. Dew Point Humidity Pressure Visibility Wind Dir Wind Speed Gust Speed Precip Events Conditions
12:15 AM 57.2 °F 46.4 °F 67% 30.02 in 10.0 mi ENE 13.8 mph - N/A   Clear
12:35 AM 55.4 °F 46.4 °F 72% 30.03 in 10.0 mi ENE 10.4 mph - N/A   Clear
12:55 AM 55.4 °F 46.4 °F 72% 30.04 in 10.0 mi NE 9.2 mph - N/A   Clear
1:15 AM 55.4 °F 46.4 °F 72% 30.05 in 10.0 mi NE 10.4 mph - N/A   Clear
1:35 AM 53.6 °F 46.4 °F 77% 30.05 in 10.0 mi NE 10.4 mph - N/A   Clear
1:55 AM 53.6 °F 46.4 °F 77% 30.06 in 10.0 mi NE 11.5 mph - N/A   Clear
2:15 AM 53.6 °F 46.4 °F 77% 30.07 in 10.0 mi NE 8.1 mph - N/A   Clear
2:35 AM 51.8 °F 46.4 °F 82% 30.06 in 10.0 mi NE 11.5 mph - N/A   Clear
2:55 AM 51.8 °F 46.4 °F 82% 30.07 in 10.0 mi NE 10.4 mph - N/A   Clear
3:15 AM 51.8 °F 46.4 °F 82% 30.08 in 10.0 mi NE 10.4 mph - N/A   Clear
3:35 AM 51.8 °F 46.4 °F 82% 30.09 in 10.0 mi NE 9.2 mph - N/A   Clear
3:55 AM 50.0 °F 46.4 °F 87% 30.09 in 10.0 mi NE 8.1 mph - N/A   Clear
4:15 AM 50.0 °F 46.4 °F 87% 30.09 in 10.0 mi NE 6.9 mph - N/A   Clear
4:35 AM 48.2 °F 44.6 °F 87% 30.10 in 10.0 mi NE 6.9 mph - N/A   Clear
4:55 AM 48.2 °F 44.6 °F 87% 30.11 in 10.0 mi NNE 8.1 mph - N/A   Clear
5:15 AM 50.0 °F 44.6 °F 82% 30.10 in 10.0 mi NNE 11.5 mph - N/A   Clear
5:35 AM 50.0 °F 44.6 °F 82% 30.11 in 10.0 mi NNE 10.4 mph - N/A   Partly Cloudy
5:55 AM 50.0 °F 44.6 °F 82% 30.12 in 10.0 mi NNE 10.4 mph - N/A   Scattered Clouds
6:15 AM 50.0 °F 44.6 °F 82% 30.13 in 10.0 mi NNE 10.4 mph - N/A   Clear
6:35 AM 50.0 °F 44.6 °F 82% 30.14 in 10.0 mi NNE 8.1 mph - N/A   Clear
6:55 AM 50.0 °F 44.6 °F 82% 30.15 in 10.0 mi NNE 9.2 mph - N/A   Clear
7:15 AM 50.0 °F 44.6 °F 82% 30.15 in 10.0 mi NNE 10.4 mph - N/A   Clear
7:35 AM 50.0 °F 44.6 °F 82% 30.15 in 10.0 mi NNE 12.7 mph - N/A   Clear
7:55 AM 51.8 °F 44.6 °F 76% 30.14 in 10.0 mi NNE 17.3 mph - N/A   Clear
8:15 AM 51.8 °F 44.6 °F 76% 30.13 in 10.0 mi NNE 17.3 mph 21.9 mph N/A   Clear
8:35 AM 51.8 °F 44.6 °F 76% 30.14 in 10.0 mi NE 16.1 mph - N/A   Clear
8:55 AM 53.6 °F 46.4 °F 77% 30.15 in 10.0 mi NNE 11.5 mph - N/A   Scattered Clouds
9:15 AM 55.4 °F 46.4 °F 72% 30.16 in 10.0 mi NNE 11.5 mph - N/A   Overcast
9:35 AM 55.4 °F 46.4 °F 72% 30.15 in 10.0 mi NE 12.7 mph - N/A   Overcast
9:55 AM 57.2 °F 46.4 °F 67% 30.14 in 10.0 mi NNE 13.8 mph 18.4 mph N/A   Mostly Cloudy
10:15 AM 57.2 °F 46.4 °F 67% 30.15 in 10.0 mi NE 17.3 mph 20.7 mph N/A   Scattered Clouds
10:35 AM 57.2 °F 46.4 °F 67% 30.15 in 10.0 mi ENE 12.7 mph - N/A   Partly Cloudy
10:55 AM 60.8 °F 48.2 °F 63% 30.16 in 10.0 mi ENE 13.8 mph 17.3 mph N/A   Partly Cloudy
11:15 AM 60.8 °F 48.2 °F 63% 30.16 in 10.0 mi ENE 12.7 mph 16.1 mph N/A   Partly Cloudy
11:35 AM 62.6 °F 48.2 °F 59% 30.15 in 8.0 mi East 11.5 mph 16.1 mph N/A   Clear
11:55 AM 64.4 °F 48.2 °F 56% 30.16 in 9.0 mi East 12.7 mph 19.6 mph N/A   Clear
12:15 PM 66.2 °F 48.2 °F 52% 30.16 in 10.0 mi East 13.8 mph 19.6 mph N/A   Clear
12:35 PM 66.2 °F 50.0 °F 56% 30.16 in 10.0 mi ESE 12.7 mph 19.6 mph N/A   Clear
12:55 PM 66.2 °F 50.0 °F 56% 30.16 in 10.0 mi East 10.4 mph - N/A   Clear
1:15 PM 66.2 °F 50.0 °F 56% 30.15 in 10.0 mi East 15.0 mph 20.7 mph N/A   Clear
1:35 PM 68.0 °F 50.0 °F 52% 30.15 in 10.0 mi East 12.7 mph 18.4 mph N/A   Clear
1:55 PM 69.8 °F 50.0 °F 49% 30.16 in 10.0 mi East 15.0 mph 19.6 mph N/A   Clear
2:15 PM 69.8 °F 50.0 °F 49% 30.15 in 10.0 mi East 12.7 mph 19.6 mph N/A   Clear
2:35 PM 69.8 °F 51.8 °F 53% 30.15 in 10.0 mi East 11.5 mph 18.4 mph N/A   Clear
2:55 PM 71.6 °F 51.8 °F 50% 30.15 in 10.0 mi East 13.8 mph 18.4 mph N/A   Clear
3:15 PM 71.6 °F 51.8 °F 50% 30.15 in 10.0 mi East 15.0 mph 19.6 mph N/A   Clear
3:35 PM 71.6 °F 51.8 °F 50% 30.15 in 10.0 mi ESE 15.0 mph - N/A   Clear
3:55 PM 71.6 °F 50.0 °F 46% 30.15 in 10.0 mi East 12.7 mph 16.1 mph N/A   Clear
4:15 PM 71.6 °F 51.8 °F 50% 30.14 in 10.0 mi ESE 12.7 mph 19.6 mph N/A   Clear
4:35 PM 71.6 °F 51.8 °F 50% 30.13 in 10.0 mi ESE 13.8 mph - N/A   Clear
4:55 PM 71.6 °F 51.8 °F 50% 30.13 in 10.0 mi ESE 13.8 mph 21.9 mph N/A   Clear
5:15 PM 71.6 °F 51.8 °F 50% 30.13 in 10.0 mi ESE 12.7 mph 18.4 mph N/A   Clear
5:35 PM 71.6 °F 51.8 °F 50% 30.13 in 10.0 mi East 16.1 mph 19.6 mph N/A   Scattered Clouds
5:55 PM 69.8 °F 51.8 °F 53% 30.13 in 10.0 mi East 15.0 mph 18.4 mph N/A   Mostly Cloudy
6:15 PM 69.8 °F 51.8 °F 53% 30.11 in 10.0 mi East 15.0 mph - N/A   Scattered Clouds
6:35 PM 69.8 °F 51.8 °F 53% 30.12 in 10.0 mi East 13.8 mph - N/A   Clear
6:55 PM 68.0 °F 51.8 °F 56% 30.12 in 10.0 mi East 12.7 mph - N/A   Mostly Cloudy
7:15 PM 68.0 °F 51.8 °F 56% 30.11 in 10.0 mi East 15.0 mph - N/A   Overcast
7:35 PM 66.2 °F 51.8 °F 60% 30.10 in 10.0 mi East 15.0 mph - N/A   Mostly Cloudy
7:55 PM 66.2 °F 51.8 °F 60% 30.11 in 10.0 mi East 15.0 mph - N/A   Mostly Cloudy
8:15 PM 66.2 °F 51.8 °F 60% 30.10 in 10.0 mi East 13.8 mph - N/A   Overcast
8:35 PM 66.2 °F 51.8 °F 60% 30.11 in 10.0 mi East 11.5 mph - N/A   Overcast
8:55 PM 64.4 °F 51.8 °F 64% 30.11 in 10.0 mi East 13.8 mph - N/A   Overcast
9:15 PM 64.4 °F 51.8 °F 64% 30.11 in 10.0 mi East 11.5 mph - N/A   Mostly Cloudy
9:35 PM 62.6 °F 51.8 °F 68% 30.12 in 10.0 mi East 9.2 mph - N/A   Clear
9:55 PM 60.8 °F 51.8 °F 72% 30.13 in 10.0 mi ESE 9.2 mph - N/A   Clear
10:15 PM 60.8 °F 51.8 °F 72% 30.14 in 10.0 mi East 10.4 mph - N/A   Clear
10:35 PM 59.0 °F 51.8 °F 77% 30.15 in 10.0 mi East 8.1 mph - N/A   Clear
10:55 PM 59.0 °F 51.8 °F 77% 30.16 in 10.0 mi East 8.1 mph - N/A   Clear
11:15 PM 57.2 °F 51.8 °F 82% 30.16 in 10.0 mi East 6.9 mph - N/A   Clear
11:35 PM 57.2 °F 51.8 °F 82% 30.17 in 10.0 mi East 8.1 mph - N/A   Clear
11:55 PM 57.2 °F 51.8 °F 82% 30.17 in 10.0 mi East 9.2 mph - N/A   Clear